Regional Weather Roundup
Issued by NWS

Home | Current Version | Previous Version | Graphics & Text | Print | Product List | Glossary On
Versions: 1 2 3 4 5 6 7 8 9 10 11 12 13 14 15 16 17 18 19 20 21 22 23 24 25 26 27 28 29 30 31 32 33 34 35 36 37 38 39 40 41 42 43 44 45 46 47 48 49 50
000
ASUS45 KTFX 180004
RWRMT
MONTANA HOURLY WEATHER ROUNDUP
NATIONAL WEATHER SERVICE GREAT FALLS MT
604 PM MDT WED SEP 17 2014

NOTE: "FAIR" INDICATES FEW OR NO CLOUDS BELOW 12000 FEET WITH NO
SIGNIFICANT WEATHER AND/OR OBSTRUCTIONS TO VISIBILITY.

* THESE STATIONS ARE NOT UNDER NWS QUALITY CONTROL. THEY DO NOT
   REPORT WEATHER SUCH AS PRECIPITATION OR FOG.

MTZ001>007-043-180100-
WEST OF THE DIVIDE
CITY           SKY/WX    TMP DP  RH WIND       PRES   REMARKS
KALISPELL      MOCLDY    79  48  34 S3        29.76F
MISSOULA       CLOUDY    81  46  29 E5        29.78F
BUTTE          CLOUDY    73  36  26 CALM      29.99F
MULLAN PASS    CLOUDY    70  43  38 CALM      29.94F
* ESSEX        N/A       76  53  45 SW1        N/A
* LINCOLN      N/A       80  45  29 SW4        N/A
* LOOKOUT PASS N/A       75  46  36 S2G14      N/A
* POLSON       N/A       76  47  36 N1         N/A
* RONAN APT    CLOUDY    79  48  34 N5         N/A
* SEELEY LAKE  N/A       81  42  25 S5G11      N/A
* THOMP F APT  CLOUDY    76  37  24 S3         N/A
$$

MTZ008-052>055-180100-
SOUTHWEST MONTANA
CITY           SKY/WX    TMP DP  RH WIND       PRES   REMARKS
BOZEMAN        CLOUDY    75  48  39 N5        29.94R
DILLON         CLOUDY    77  39  26 NE12      29.96F
W YELLOWSTONE  MOCLDY    72  36  27 SW5       30.09S
* THREE FORKS  CLOUDY    79  59  50 SW10G17    N/A
* BOULDER HILL N/A       73  35  25 W1G15      N/A
* MONIDA PASS  N/A       74  37  26 NE2        N/A
* RAYNOLDS PAS N/A       74  71  90 NW1G11     N/A
* WHITEHALL    N/A       76  46  35 SE3G11     N/A
* WISE RIVER   N/A       72  38  29 W5G14      N/A
$$

MTZ009>010-012-014-046-048-049-054-180100-
EAST SLOPES AND CENTRAL MONTANA
CITY           SKY/WX    TMP DP  RH WIND       PRES   REMARKS
CUT BANK       MOCLDY    75  48  39 S8        29.80S
GREAT FALLS    CLOUDY    77  55  47 S5        29.80F
HELENA         CLOUDY    77  57  50 N5        29.84F
MALMSTROM AFB  CLOUDY    79  55  44 E5        29.80F
* CONRAD       MOCLDY    79  63  58 N/A        N/A
* EAST GLACIER N/A       75  40  28 NW12G18    N/A
* MONARCH      N/A       73  39  29 SW4        N/A
* PENDROY      N/A       80  49  34 SE8        N/A
* ROGERS PASS  N/A       75  39  27 SE9G15     N/A
* SAINT MARY   N/A       79  40  25 SW5G12     N/A
* SWEET GRASS  N/A       80  40  24 SE4        N/A
$$

MTZ011-013-016-021-035-040-045-047-050-051-180100-
NORTH CENTRAL MONTANA
CITY           SKY/WX    TMP DP  RH WIND       PRES   REMARKS
HAVRE          PTCLDY    81  54  39 E10       29.76F
LEWISTOWN      MOCLDY    75  54  48 E12       29.87F
* CHESTER      N/A       81  43  26 S5G10      N/A
* DENTON       N/A       79  46  31 NE6        N/A
* GEYSER       N/A       78  52  40 E2         N/A
* JUDITH GAP   N/A       74  48  40 S8         N/A
* LOMA         N/A       83  47  28 E7         N/A
$$

MTZ017>020-022>027-061-062-180100-
NORTHEAST MONTANA
CITY           SKY/WX    TMP DP  RH WIND       PRES   REMARKS
GLASGOW        PTCLDY    79  46  31 SE15      29.80F
GLENDIVE       CLEAR     75  46  36 SE10      29.89F
JORDAN         PTCLDY    81  45  28 SE7       29.82F
SIDNEY         CLEAR    N/A N/A N/A SE9       29.90F
WOLF POINT     CLEAR     79  46  31 SE10      29.84F
* BEAVER HILL  N/A       72  47  41 E14G20     N/A
* CIRCLE       N/A       78  50  38 E11G16     N/A
* LINDSAY DVD  N/A       74  44  34 E12        N/A
* NAVAJO       N/A       74  41  31 S12        N/A
* SACO         N/A       78  51  39 E10        N/A
$$

MTZ028>042-056>058-180100-
SOUTHCENTRAL AND SOUTHEAST MONTANA
CITY           SKY/WX    TMP DP  RH WIND       PRES   REMARKS
BAKER          CLEAR     73  50  44 SE12      29.92S
BILLINGS       MOCLDY    84  43  24 S3        29.86S
LIVINGSTON     CLOUDY    79  41  26 SW16G26   29.92R
MILES CITY     PTCLDY    81  45  28 SE5       29.83F
* LAUREL APT   MOCLDY    86  45  24 N/A        N/A
* ROUNDUP APT  MOCLDY    81  48  32 N/A        N/A
* ALZADA       N/A       77  47  35 E9G14      N/A
* HYSHAM       N/A       80  47  31 E7         N/A
* LAME DEER    N/A       75  51  43 NE4        N/A
* REED POINT   N/A       82  47  29 SE5G10     N/A
* ROSCOE HILL  N/A       68  36  31 S16G29     N/A
$$

REGIONAL REPORTS...DAKOTAS
CITY           SKY/WX    TMP DP  RH WIND       PRES   REMARKS
WILLISTON      CLEAR     73  43  34 SE9       29.91F
DICKINSON      PTCLDY    68  46  45 SE8       29.94R
BEACH          N/A       68  46  45 E12       29.93S
CROSBY         HAZE      68  50  53 E15G20    29.93F
TIOGA          CLEAR     70  39  32 S13       29.98R
WATFORD CITY   HAZE      72  43  35 SE9       29.92S
BISMARCK       PTCLDY    70  52  53 E9        29.96S
GRAND FORKS    CLEAR     61  46  58 NE10      30.02R
FARGO          CLEAR     68  52  57 N9        29.97S
BUFFALO SD     CLEAR     73  52  48 SE15      29.87F
RAPID CITY     PTCLDY    79  52  39 E10       29.92S
$$

REGIONAL REPORTS...WYOMING/IDAHO/WASHINGTON
CITY           SKY/WX    TMP DP  RH WIND       PRES   REMARKS
GILLETTE       CLEAR     81  46  29 NE8       29.93S
SHERIDAN       PTCLDY    82  45  27 CALM      29.90F
CODY           CLOUDY   N/A N/A N/A N/A        N/A
YELLOWSTONE LA MOCLDY    66  36  33 VRB5      30.20F
SALMON         CLOUDY    73  45  37 CALM      29.87F
MULLAN PASS    CLOUDY    70  43  38 CALM      29.94S
SAND POINT     CLOUDY    72  48  43 CALM      29.72F
SPOKANE        CLOUDY    82  36  19 NE5       29.72F

$$




USA.gov is the U.S. government's official web portal to all federal, state and local government web resources and services.